Location: Ladrillo (historical)
(32.8195°N, 117.2231°W)
Time: 03:32:09
(UTC+00:00)

Abrixas rocket - Pass Details

Date: 29 October 2020
Orbit: 322 x 325 km, 48.4° (Epoch: 26 November)

Event Time Altitude Azimuth Distance (km) Brightness Sun altitude
Exits shadow 12:34:30 13° 11° (N) 1,141 4.5 -19.5°
Maximum altitude 12:35:13 13° 27° (NNE) 1,101 4.6 -19.3°
Drops below altitude 10° 12:36:44 10° 59° (ENE) 1,278 5.5 -19.0°
Sets 12:39:28 0° 89° (E) 2,117 7.5 -18.4°
